Location: Ajisawe
(8.4333°N, 4.3833°E)
Time: 02:11:56
(UTC+00:00)

Courier 1B Rocket - Pass Details

Date: 23 April 2021
Orbit: 920 x 1202 km, 28.3° (Epoch: 13 May)

Event Time Altitude Azimuth Distance (km) Brightness Sun altitude
Rises 17:40:47 0° 284° (WNW) 3,561 11.9 1.8°
Reaches altitude 10° 17:44:12 10° 302° (WNW) 2,642 8.9 1.0°
Maximum altitude 17:48:31 19° 346° (NNW) 2,121 7.2 0.0°
Drops below altitude 10° 17:53:00 10° 29° (NNE) 2,745 7.2 -1.1°
Sets 17:56:39 0° 46° (NE) 3,750 7.7 -2.0°
